This demonstration page uses our WeatherBlox Daily Observations layout. Learn more.

Left ArrowRight Arrow

Hourly Observations for January 30, 2022

Temp ( °F °C ) Dew Point ( °F °C ) Humidity (%) Winds ( mph kmh ) Pressure ( in mb ) Visibility ( mi km ) Precip ( " mm )
12:54 am 00:54 Clear 35 1.7 17 -8.3 48 48 NNW 8 13 30.07 1018 10 16 0.00 0.00
1:54 am 01:54 Clear 33 0.6 19 -7.2 56 56 NNW 10 17 30.08 1019 10 16 0.00 0.00
2:54 am 02:54 Clear 31 -0.6 19 -7.2 61 61 NNW 7 11 30.10 1019 10 16 0.00 0.00
3:54 am 03:54 Clear 28 -2.2 18 -7.8 66 66 NNW 8 13 30.10 1019 10 16 0.00 0.00
4:54 am 04:54 Clear 20 -6.7 14 -10 78 78 N 6 9 30.12 1020 10 16 0.00 0.00
5:54 am 05:54 Clear 25 -3.9 16 -8.9 69 69 SW 3 6 30.13 1020 10 16 0.00 0.00
6:54 am 06:54 Clear 24 -4.4 16 -8.9 71 71 W 3 6 30.16 1021 10 16 0.00 0.00
7:54 am 07:54 Sunny 23 -5 16 -8.9 74 74 W 5 7 30.17 1022 10 16 0.00 0.00
8:54 am 08:54 Sunny 25 -3.9 18 -7.8 75 75 WNW 7 11 30.19 1022 10 16 0.00 0.00
9:54 am 09:54 Sunny 29 -1.7 19 -7.2 66 66 N 8 13 30.19 1022 10 16 0.00 0.00
10:54 am 10:54 Sunny 32 0 19 -7.2 59 59 Calm 30.18 1022 10 16 0.00 0.00
11:54 am 11:54 Sunny 34 1.1 19 -7.2 54 54 Calm 30.16 1022 10 16 0.00 0.00
12:54 pm 12:54 Sunny 38 3.3 19 -7.2 46 46 SE 6 9 30.12 1020 10 16 0.00 0.00
1:54 pm 13:54 Sunny 41 5 19 -7.2 41 41 VRB 3 6 30.09 1019 10 16 0.00 0.00
2:54 pm 14:54 Sunny 45 7.2 19 -7.2 35 35 SE 8 13 30.06 1018 10 16 0.00 0.00
3:54 pm 15:54 Sunny 46 7.8 19 -7.2 34 34 S 12 19 30.04 1017 10 16 0.00 0.00
4:54 pm 16:54 Sunny 45 7.2 19 -7.2 35 35 S 8 13 30.03 1017 10 16 0.00 0.00
5:54 pm 17:54 Clear 36 2.2 17 -8.3 46 46 SSE 8 13 30.02 1017 10 16 0.00 0.00
6:54 pm 18:54 Clear 36 2.2 18 -7.8 48 48 S 9 15 30.03 1017 10 16 0.00 0.00
7:54 pm 19:54 Clear 36 2.2 19 -7.2 50 50 SSE 7 11 30.02 1017 10 16 0.00 0.00
8:54 pm 20:54 Clear 36 2.2 18 -7.8 48 48 SSE 6 9 30.01 1016 10 16 0.00 0.00
9:54 pm 21:54 Clear 37 2.8 19 -7.2 48 48 S 8 13 29.98 1015 10 16 0.00 0.00
10:54 pm 22:54 Clear 36 2.2 19 -7.2 50 50 SE 6 9 29.97 1015 10 16 0.00 0.00
11:54 pm 23:54 Cloudy 37 2.8 19 -7.2 48 48 SSE 6 9 29.96 1015 10 16 0.00 0.00

Powered by AerisWeather